Weather History for Meriden, CT

Change the Weather History Date:

Friday, February 22, 2013

  Actual Average (KHVN) Record (KHVN)
Temperature  
Mean Temperature 30 °F -  
Max Temperature 39 °F 39 °F 46 °F (2014)
Min Temperature 21 °F 26 °F 36 °F (2014)
Degree Days  
Heating Degree Days 35    
Moisture  
Dew Point 19 °F    
Average Humidity 63    
Maximum Humidity 75    
Minimum Humidity 45    
Precipitation  
Precipitation 0.00 in - - ()
Sea Level Pressure  
Sea Level Pressure 30.35 in    
Wind  
Wind Speed 5 mph (NW)    
Max Wind Speed 9 mph    
Max Gust Speed -    
Visibility 10 miles    
Events      
Averages and records for this station are not official NWS values.
T = Trace of Precipitation, MM = Missing Value Source: NWS Daily Summary

Daily Weather History Graph

Daily Weather History Graph

Search for Another Location

Airport:

Trip Planner

Search our weather history database for the weather conditions in past years. The results will help you decide how hot, cold, wet, or windy it might be!

Date:

Astronomy

Feb. 22, 2013 Rise Set
Actual Time 6:36 AM EST 5:33 PM EST
Civil Twilight 6:08 AM EST 6:01 PM EST
Nautical Twilight 5:36 AM EST 6:34 PM EST
Astronomical Twilight 5:04 AM EST 7:06 PM EST
Moon 2:41 PM EST (2/22) 4:21 AM EST (2/22)
Length of Visible Light 11h 53m
Length of Day
10h 57m
Waxing Gibbous, 90% of the Moon is Illuminated
Feb 22
Waxing Gibbous
Feb 25
Full
Mar 4
Last Quarter
Mar 11
New
Mar 19
First Quarter

Hourly Weather History & Observations

Time (EST) Temp. Windchill Dew Point Humidity Pressure Visibility Wind Dir Wind Speed Gust Speed Precip Events Conditions
12:53 AM 23.0 °F 13.9 °F 12.0 °F 63% 30.30 in 10.0 mi NW 8.1 mph - N/A   Clear
1:53 AM 23.0 °F 14.7 °F 12.9 °F 65% 30.29 in 10.0 mi NW 6.9 mph - N/A   Clear
2:53 AM 24.1 °F 17.0 °F 14.0 °F 65% 30.29 in 10.0 mi NNW 5.8 mph - N/A   Clear
3:53 AM 23.0 °F 15.8 °F 14.0 °F 68% 30.31 in 10.0 mi NW 5.8 mph - N/A   Clear
4:53 AM 23.0 °F 13.1 °F 14.0 °F 68% 30.35 in 10.0 mi NW 9.2 mph - N/A   Clear
5:53 AM 24.1 °F 17.0 °F 15.1 °F 69% 30.36 in 10.0 mi North 5.8 mph - N/A   Clear
6:53 AM 21.9 °F - 15.1 °F 75% 30.38 in 10.0 mi Calm Calm - N/A   Clear
7:53 AM 24.1 °F 18.2 °F 15.1 °F 69% 30.42 in 10.0 mi NW 4.6 mph - N/A   Clear
8:53 AM 28.0 °F 20.0 °F 17.1 °F 63% 30.40 in 10.0 mi North 8.1 mph - N/A   Clear
9:53 AM 32.0 °F 27.5 °F 19.0 °F 59% 30.39 in 10.0 mi North 4.6 mph - N/A   Clear
10:53 AM 33.1 °F 26.1 °F 19.0 °F 56% 30.37 in 10.0 mi North 8.1 mph - N/A   Clear
11:53 AM 35.1 °F - 19.0 °F 52% 30.38 in 10.0 mi Calm Calm - N/A   Clear
12:53 PM 37.0 °F - 19.0 °F 48% 30.36 in 10.0 mi Calm Calm - N/A   Clear
1:53 PM 37.0 °F - 19.0 °F 48% 30.34 in 10.0 mi Calm Calm - N/A   Clear
2:53 PM 39.0 °F - 19.0 °F 45% 30.33 in 10.0 mi Calm Calm - N/A   Clear
3:53 PM 36.0 °F 30.3 °F 21.9 °F 57% 30.33 in 10.0 mi South 6.9 mph - N/A   Clear
4:53 PM 36.0 °F 29.6 °F 21.9 °F 57% 30.34 in 10.0 mi South 8.1 mph - N/A   Clear
5:53 PM 35.1 °F 31.0 °F 23.0 °F 61% 30.34 in 10.0 mi South 4.6 mph - N/A   Partly Cloudy
6:53 PM 34.0 °F 28.8 °F 24.1 °F 67% 30.35 in 10.0 mi South 5.8 mph - N/A   Mostly Cloudy
7:53 PM 34.0 °F - 25.0 °F 70% 30.35 in 10.0 mi Calm Calm - N/A   Overcast
8:53 PM 34.0 °F - 25.0 °F 70% 30.34 in 10.0 mi Calm Calm - N/A   Overcast
9:53 PM 34.0 °F - 26.1 °F 73% 30.34 in 10.0 mi Calm Calm - N/A   Overcast
10:53 PM 34.0 °F - 26.1 °F 73% 30.33 in 10.0 mi Calm Calm - N/A   Overcast
11:53 PM 34.0 °F 31.0 °F 26.1 °F 73% 30.31 in 10.0 mi ESE 3.5 mph - N/A   Overcast